date,time,SUV Intensity [MED/Hr],UV Index,Daily total [MED],Since Last [MED]
06/07/2023,23:58:39,-0.000,0.0,11.08,11.08
06/07/2023,23:59:39,-0.000,0.0,11.08,0.0
07/07/2023,00:00:38,0.000,0.0,0.0,-11.08
07/07/2023,00:01:39,0.000,0.0,0.0,0.0
07/07/2023,00:02:38,0.000,0.0,0.0,0.0
07/07/2023,00:03:39,0.000,0.0,0.0,0.0
07/07/2023,00:04:39,-0.000,0.0,0.0,0.0
07/07/2023,00:05:39,0.000,0.0,0.0,0.0
07/07/2023,00:06:38,0.000,0.0,0.0,0.0
07/07/2023,00:07:39,0.000,0.0,0.0,0.0
07/07/2023,00:08:38,0.000,0.0,0.0,0.0
07/07/2023,00:09:38,0.001,0.0,0.0,0.0
07/07/2023,00:10:38,0.000,0.0,0.0,0.0
07/07/2023,00:11:39,0.000,0.0,0.0,0.0
07/07/2023,00:12:39,0.000,0.0,0.0,0.0
07/07/2023,00:13:39,-0.001,0.0,0.0,0.0
07/07/2023,00:14:39,-0.001,0.0,0.0,0.0
07/07/2023,00:15:38,-0.000,0.0,0.0,0.0
07/07/2023,00:16:39,0.001,0.0,0.0,0.0
07/07/2023,00:17:38,0.000,0.0,0.0,0.0
07/07/2023,00:18:39,0.000,0.0,0.0,0.0
07/07/2023,00:19:39,0.000,0.0,0.0,0.0
07/07/2023,00:20:38,0.000,0.0,0.0,0.0
07/07/2023,00:21:39,0.000,0.0,0.0,0.0
07/07/2023,00:22:39,0.000,0.0,0.0,0.0
07/07/2023,00:23:38,0.000,0.0,0.0,0.0
07/07/2023,00:24:39,0.001,0.0,0.0,0.0
07/07/2023,00:25:38,-0.000,0.0,0.0,0.0
07/07/2023,00:26:39,0.001,0.0,0.0,0.0
07/07/2023,00:27:38,-0.001,0.0,0.0,0.0
07/07/2023,00:28:39,0.000,0.0,0.0,0.0
07/07/2023,00:29:37,0.001,0.0,0.0,0.0
07/07/2023,00:30:39,0.000,0.0,0.0,0.0
07/07/2023,00:31:38,0.000,0.0,0.0,0.0
07/07/2023,00:32:39,0.001,0.0,0.0,0.0
07/07/2023,00:33:38,0.000,0.0,0.0,0.0
07/07/2023,00:35:01,0.001,0.0,0.0,0.0
07/07/2023,00:36:39,0.000,0.0,0.0,0.0
07/07/2023,00:37:38,-0.001,0.0,0.0,0.0
07/07/2023,00:38:39,-0.000,0.0,0.0,0.0
07/07/2023,00:39:39,0.000,0.0,0.0,0.0
07/07/2023,00:40:39,0.001,0.0,0.0,0.0
07/07/2023,00:41:38,0.000,0.0,0.0,0.0
07/07/2023,00:42:39,0.000,0.0,0.0,0.0
07/07/2023,00:43:38,0.001,0.0,0.0,0.0
07/07/2023,00:44:39,-0.000,0.0,0.0,0.0
07/07/2023,00:45:39,0.001,0.0,0.0,0.0
07/07/2023,00:46:38,0.000,0.0,0.0,0.0
07/07/2023,00:47:39,-0.001,0.0,0.0,0.0
07/07/2023,00:48:39,0.001,0.0,0.0,0.0
07/07/2023,00:49:38,0.000,0.0,0.0,0.0
07/07/2023,00:50:38,0.000,0.0,0.0,0.0
07/07/2023,00:51:38,0.001,0.0,0.0,0.0
07/07/2023,00:52:38,0.001,0.0,0.0,0.0
07/07/2023,00:53:38,-0.000,0.0,0.0,0.0
07/07/2023,00:54:39,0.001,0.0,0.0,0.0
07/07/2023,00:55:39,0.000,0.0,0.0,0.0
07/07/2023,00:56:39,0.001,0.0,0.0,0.0
07/07/2023,00:57:39,0.000,0.0,0.0,0.0
07/07/2023,00:58:39,0.001,0.0,0.0,0.0
07/07/2023,00:59:38,0.001,0.0,0.0,0.0
07/07/2023,01:00:39,-0.001,0.0,0.0,0.0
07/07/2023,01:01:39,0.001,0.0,0.0,0.0
07/07/2023,01:02:39,0.000,0.0,0.0,0.0
07/07/2023,01:03:38,0.000,0.0,0.0,0.0
07/07/2023,01:04:39,0.000,0.0,0.0,0.0
07/07/2023,01:05:39,0.000,0.0,0.0,0.0
07/07/2023,01:06:38,-0.000,0.0,0.0,0.0
07/07/2023,01:07:39,0.000,0.0,0.0,0.0
07/07/2023,01:08:39,0.000,0.0,0.0,0.0
07/07/2023,01:09:38,0.001,0.0,0.0,0.0
07/07/2023,01:10:39,0.000,0.0,0.0,0.0
07/07/2023,01:11:38,0.000,0.0,0.0,0.0
07/07/2023,01:12:39,0.000,0.0,0.0,0.0
07/07/2023,01:13:39,0.000,0.0,0.0,0.0
07/07/2023,01:14:38,0.000,0.0,0.0,0.0
07/07/2023,01:15:38,0.000,0.0,0.0,0.0
07/07/2023,01:16:38,0.001,0.0,0.0,0.0
07/07/2023,01:18:00,0.000,0.0,0.0,0.0
07/07/2023,01:19:39,0.000,0.0,0.0,0.0
07/07/2023,01:20:39,-0.000,0.0,0.0,0.0
07/07/2023,01:21:39,0.000,0.0,0.0,0.0
07/07/2023,01:22:39,0.001,0.0,0.0,0.0
07/07/2023,01:23:39,0.000,0.0,0.0,0.0
07/07/2023,01:24:39,0.000,0.0,0.0,0.0
07/07/2023,01:25:38,0.000,0.0,0.0,0.0
07/07/2023,01:26:39,0.000,0.0,0.0,0.0
07/07/2023,01:27:39,-0.001,0.0,0.0,0.0
07/07/2023,01:28:39,0.000,0.0,0.0,0.0
07/07/2023,01:29:39,0.000,0.0,0.0,0.0
07/07/2023,01:30:38,0.000,0.0,0.0,0.0
07/07/2023,01:31:39,0.000,0.0,0.0,0.0
07/07/2023,01:32:39,0.000,0.0,0.0,0.0
07/07/2023,01:33:39,-0.001,0.0,0.0,0.0
07/07/2023,01:34:38,-0.000,0.0,0.0,0.0
07/07/2023,01:35:39,0.000,0.0,0.0,0.0
07/07/2023,01:36:39,0.000,0.0,0.0,0.0
07/07/2023,01:37:39,0.000,0.0,0.0,0.0
07/07/2023,01:38:38,0.001,0.0,0.0,0.0
07/07/2023,01:39:39,0.001,0.0,0.0,0.0
07/07/2023,01:40:39,0.000,0.0,0.0,0.0
07/07/2023,01:41:39,0.000,0.0,0.0,0.0
07/07/2023,01:42:38,-0.000,0.0,0.0,0.0
07/07/2023,01:43:39,0.000,0.0,0.0,0.0
07/07/2023,01:44:39,-0.000,0.0,0.0,0.0
07/07/2023,01:45:38,0.000,0.0,0.0,0.0
07/07/2023,01:46:39,-0.001,0.0,0.0,0.0
07/07/2023,01:47:38,0.000,0.0,0.0,0.0
07/07/2023,01:48:39,0.000,0.0,0.0,0.0
07/07/2023,01:49:39,0.000,0.0,0.0,0.0
07/07/2023,01:50:39,0.001,0.0,0.0,0.0
07/07/2023,01:51:38,-0.001,0.0,0.0,0.0
07/07/2023,01:52:39,0.000,0.0,0.0,0.0
07/07/2023,01:53:39,0.000,0.0,0.0,0.0
07/07/2023,01:54:38,0.001,0.0,0.0,0.0
07/07/2023,01:55:39,-0.001,0.0,0.0,0.0
07/07/2023,01:56:38,0.000,0.0,0.0,0.0
07/07/2023,01:57:39,-0.001,0.0,0.0,0.0
07/07/2023,01:58:39,0.000,0.0,0.0,0.0
07/07/2023,01:59:39,0.000,0.0,0.0,0.0
07/07/2023,02:00:39,0.000,0.0,0.0,0.0
07/07/2023,02:01:39,0.000,0.0,0.0,0.0
07/07/2023,02:02:39,0.001,0.0,0.0,0.0
07/07/2023,02:03:39,-0.000,0.0,0.0,0.0
07/07/2023,02:04:40,0.000,0.0,0.0,0.0
07/07/2023,02:05:39,0.000,0.0,0.0,0.0
07/07/2023,02:06:39,0.000,0.0,0.0,0.0
07/07/2023,02:07:39,0.000,0.0,0.0,0.0
07/07/2023,02:08:39,0.000,0.0,0.0,0.0
07/07/2023,02:09:39,0.000,0.0,0.0,0.0
07/07/2023,02:10:39,-0.001,0.0,0.0,0.0
07/07/2023,02:11:39,-0.001,0.0,0.0,0.0
07/07/2023,02:12:38,0.000,0.0,0.0,0.0
07/07/2023,02:13:39,0.000,0.0,0.0,0.0
07/07/2023,02:14:39,0.000,0.0,0.0,0.0
07/07/2023,02:15:38,0.000,0.0,0.0,0.0
07/07/2023,02:16:38,0.000,0.0,0.0,0.0
07/07/2023,02:17:39,0.001,0.0,0.0,0.0
07/07/2023,02:18:38,0.000,0.0,0.0,0.0
07/07/2023,02:19:39,0.000,0.0,0.0,0.0
07/07/2023,02:20:39,0.000,0.0,0.0,0.0
07/07/2023,02:21:39,0.000,0.0,0.0,0.0
07/07/2023,02:22:38,0.001,0.0,0.0,0.0
07/07/2023,02:23:38,0.000,0.0,0.0,0.0
07/07/2023,02:24:38,0.000,0.0,0.0,0.0
07/07/2023,02:25:39,0.001,0.0,0.0,0.0
07/07/2023,02:26:39,0.000,0.0,0.0,0.0
07/07/2023,02:27:38,-0.001,0.0,0.0,0.0
07/07/2023,02:28:39,0.000,0.0,0.0,0.0
07/07/2023,02:29:39,0.000,0.0,0.0,0.0
07/07/2023,02:30:39,0.000,0.0,0.0,0.0
07/07/2023,02:31:38,0.000,0.0,0.0,0.0
07/07/2023,02:32:39,0.000,0.0,0.0,0.0
07/07/2023,02:33:38,-0.000,0.0,0.0,0.0
07/07/2023,02:34:39,0.001,0.0,0.0,0.0
07/07/2023,02:35:39,0.000,0.0,0.0,0.0
07/07/2023,02:36:39,-0.001,0.0,0.0,0.0
07/07/2023,02:37:38,0.000,0.0,0.0,0.0
07/07/2023,02:38:39,0.000,0.0,0.0,0.0
07/07/2023,02:39:39,0.001,0.0,0.0,0.0
07/07/2023,02:40:39,0.000,0.0,0.0,0.0
07/07/2023,02:41:39,0.000,0.0,0.0,0.0
07/07/2023,02:42:38,0.001,0.0,0.0,0.0
07/07/2023,02:43:39,-0.001,0.0,0.0,0.0
07/07/2023,02:44:38,-0.000,0.0,0.0,0.0
07/07/2023,02:45:39,-0.001,0.0,0.0,0.0
07/07/2023,02:46:38,0.000,0.0,0.0,0.0
07/07/2023,02:47:39,0.001,0.0,0.0,0.0
07/07/2023,02:48:39,0.000,0.0,0.0,0.0
07/07/2023,02:49:38,-0.000,0.0,0.0,0.0
07/07/2023,02:50:39,0.000,0.0,0.0,0.0
07/07/2023,02:51:39,0.000,0.0,0.0,0.0
07/07/2023,02:52:38,0.000,0.0,0.0,0.0
07/07/2023,02:53:39,0.000,0.0,0.0,0.0
07/07/2023,02:54:38,0.000,0.0,0.0,0.0
07/07/2023,02:55:39,0.000,0.0,0.0,0.0
07/07/2023,02:56:39,0.000,0.0,0.0,0.0
07/07/2023,02:57:39,0.000,0.0,0.0,0.0
07/07/2023,02:58:38,0.000,0.0,0.0,0.0
07/07/2023,02:59:39,-0.001,0.0,0.0,0.0
07/07/2023,03:00:39,0.000,0.0,0.0,0.0
07/07/2023,03:01:38,-0.000,0.0,0.0,0.0
07/07/2023,03:03:00,0.001,0.0,0.0,0.0
07/07/2023,03:04:39,0.000,0.0,0.0,0.0
07/07/2023,03:05:38,0.001,0.0,0.0,0.0
07/07/2023,03:06:39,-0.001,0.0,0.0,0.0
07/07/2023,03:07:38,0.001,0.0,0.0,0.0
07/07/2023,03:08:39,0.000,0.0,0.0,0.0
07/07/2023,03:09:38,0.001,0.0,0.0,0.0
07/07/2023,03:10:39,0.000,0.0,0.0,0.0
07/07/2023,03:11:39,0.000,0.0,0.0,0.0
07/07/2023,03:12:39,-0.000,0.0,0.0,0.0
07/07/2023,03:13:39,0.000,0.0,0.0,0.0
07/07/2023,03:14:39,0.000,0.0,0.0,0.0
07/07/2023,03:15:39,0.001,0.0,0.0,0.0
07/07/2023,03:16:39,0.001,0.0,0.0,0.0
07/07/2023,03:17:39,0.000,0.0,0.0,0.0
07/07/2023,03:18:39,0.000,0.0,0.0,0.0
07/07/2023,03:19:38,0.001,0.0,0.0,0.0
07/07/2023,03:20:39,0.002,0.0,0.0,0.0
07/07/2023,03:21:38,0.002,0.0,0.0,0.0
07/07/2023,03:22:38,0.000,0.0,0.0,0.0
07/07/2023,03:23:39,0.000,0.0,0.0,0.0
07/07/2023,03:24:39,0.001,0.0,0.0,0.0
07/07/2023,03:25:39,0.000,0.0,0.0,0.0
07/07/2023,03:26:39,0.000,0.0,0.0,0.0
07/07/2023,03:27:39,0.001,0.0,0.0,0.0
07/07/2023,03:28:39,0.000,0.0,0.0,0.0
07/07/2023,03:29:39,0.001,0.0,0.0,0.0
07/07/2023,03:30:39,0.000,0.0,0.0,0.0
07/07/2023,03:31:38,0.001,0.0,0.0,0.0
07/07/2023,03:32:39,0.001,0.0,0.0,0.0
07/07/2023,03:33:39,0.001,0.0,0.0,0.0
07/07/2023,03:34:39,0.001,0.0,0.0,0.0
07/07/2023,03:35:39,0.002,0.0,0.0,0.0
07/07/2023,03:36:39,0.001,0.0,0.0,0.0
07/07/2023,03:37:39,0.001,0.0,0.0,0.0
07/07/2023,03:38:39,0.000,0.0,0.0,0.0
07/07/2023,03:39:39,0.001,0.0,0.0,0.0
07/07/2023,03:40:39,0.001,0.0,0.0,0.0
07/07/2023,03:41:38,0.002,0.0,0.0,0.0
07/07/2023,03:42:39,0.001,0.0,0.0,0.0
07/07/2023,03:43:39,0.001,0.0,0.0,0.0
07/07/2023,03:44:39,0.001,0.0,0.0,0.0
07/07/2023,03:45:38,0.001,0.0,0.0,0.0
07/07/2023,03:46:39,0.003,0.0,0.0,0.0
07/07/2023,03:47:39,0.002,0.0,0.0,0.0
07/07/2023,03:48:39,0.002,0.0,0.0,0.0
07/07/2023,03:49:39,0.002,0.0,0.0,0.0
07/07/2023,03:50:39,0.002,0.0,0.0,0.0
07/07/2023,03:51:39,0.002,0.0,0.0,0.0
07/07/2023,03:52:39,0.002,0.0,0.0,0.0
07/07/2023,03:53:39,0.002,0.0,0.0,0.0
07/07/2023,03:54:39,0.003,0.0,0.0,0.0
07/07/2023,03:55:39,0.003,0.0,0.0,0.0
07/07/2023,03:56:39,0.003,0.0,0.0,0.0
07/07/2023,03:57:39,0.003,0.0,0.0,0.0
07/07/2023,03:58:39,0.003,0.0,0.0,0.0
07/07/2023,03:59:39,0.003,0.0,0.0,0.0
07/07/2023,04:00:39,0.004,0.0,0.0,0.0
07/07/2023,04:01:39,0.004,0.0,0.0,0.0
07/07/2023,04:02:39,0.004,0.0,0.0,0.0
07/07/2023,04:03:39,0.004,0.0,0.0,0.0
07/07/2023,04:04:38,0.004,0.0,0.0,0.0
07/07/2023,04:05:39,0.005,0.0,0.0,0.0
07/07/2023,04:06:39,0.005,0.0,0.0,0.0
07/07/2023,04:07:39,0.006,0.0,0.0,0.0
07/07/2023,04:08:39,0.005,0.0,0.0,0.0
07/07/2023,04:09:39,0.005,0.0,0.0,0.0
07/07/2023,04:10:39,0.006,0.0,0.0,0.0
07/07/2023,04:11:39,0.006,0.0,0.0,0.0
07/07/2023,04:12:39,0.006,0.0,0.0,0.0
07/07/2023,04:13:39,0.006,0.0,0.0,0.0
07/07/2023,04:14:39,0.006,0.0,0.0,0.0
07/07/2023,04:15:39,0.007,0.0,0.0,0.0
07/07/2023,04:16:39,0.006,0.0,0.001,0.001
07/07/2023,04:17:39,0.007,0.0,0.001,0.0
07/07/2023,04:18:39,0.008,0.0,0.001,0.0
07/07/2023,04:19:39,0.008,0.0,0.001,0.0
07/07/2023,04:20:39,0.009,0.0,0.001,0.0
07/07/2023,04:21:39,0.009,0.0,0.001,0.0
07/07/2023,04:22:39,0.009,0.0,0.001,0.0
07/07/2023,04:23:39,0.010,0.0,0.002,0.001
07/07/2023,04:24:39,0.010,0.0,0.002,0.0
07/07/2023,04:25:39,0.010,0.0,0.002,0.0
07/07/2023,04:26:39,0.010,0.0,0.002,0.0
07/07/2023,04:27:39,0.011,0.0,0.002,0.0
07/07/2023,04:28:38,0.011,0.0,0.002,0.0
07/07/2023,04:29:38,0.012,0.0,0.003,0.001
07/07/2023,04:30:39,0.012,0.0,0.003,0.0
07/07/2023,04:31:39,0.012,0.0,0.003,0.0
07/07/2023,04:32:39,0.013,0.0,0.003,0.0
07/07/2023,04:33:39,0.013,0.0,0.003,0.0
07/07/2023,04:34:38,0.014,0.0,0.004,0.001
07/07/2023,04:35:39,0.015,0.0,0.004,0.0
07/07/2023,04:36:39,0.014,0.0,0.004,0.0
07/07/2023,04:37:39,0.015,0.0,0.004,0.0
07/07/2023,04:38:39,0.016,0.0,0.005,0.001
07/07/2023,04:39:39,0.016,0.0,0.005,0.0
07/07/2023,04:40:39,0.017,0.0,0.005,0.0
07/07/2023,04:41:39,0.017,0.0,0.005,0.0
07/07/2023,04:42:39,0.018,0.0,0.006,0.001
07/07/2023,04:43:39,0.018,0.0,0.006,0.0
07/07/2023,04:44:39,0.019,0.0,0.006,0.0
07/07/2023,04:45:39,0.019,0.0,0.007,0.001
07/07/2023,04:46:39,0.021,0.0,0.007,0.0
07/07/2023,04:47:39,0.021,0.0,0.007,0.0
07/07/2023,04:48:39,0.021,0.0,0.008,0.001
07/07/2023,04:49:40,0.022,0.0,0.008,0.0
07/07/2023,04:50:39,0.023,0.0,0.008,0.0
07/07/2023,04:51:39,0.023,0.0,0.009,0.001
07/07/2023,04:52:39,0.024,0.0,0.009,0.0
07/07/2023,04:53:39,0.025,0.0,0.01,0.001
07/07/2023,04:54:39,0.025,0.0,0.01,0.0
07/07/2023,04:55:39,0.026,0.0,0.01,0.0
07/07/2023,04:56:39,0.027,0.0,0.011,0.001
07/07/2023,04:57:39,0.028,0.0,0.011,0.0
07/07/2023,04:58:39,0.028,0.0,0.012,0.001
07/07/2023,04:59:39,0.029,0.0,0.012,0.0
07/07/2023,05:00:39,0.031,0.0,0.013,0.001
07/07/2023,05:01:39,0.032,0.0,0.013,0.0
07/07/2023,05:02:39,0.032,0.0,0.014,0.001
07/07/2023,05:03:39,0.032,0.0,0.014,0.0
07/07/2023,05:04:39,0.033,0.0,0.015,0.001
07/07/2023,05:05:39,0.034,0.0,0.015,0.0
07/07/2023,05:06:39,0.036,0.0,0.016,0.001
07/07/2023,05:07:39,0.036,0.0,0.017,0.001
07/07/2023,05:08:39,0.037,0.0,0.017,0.0
07/07/2023,05:09:39,0.038,0.0,0.018,0.001
07/07/2023,05:10:39,0.041,0.0,0.019,0.001
07/07/2023,05:11:39,0.040,0.0,0.019,0.0
07/07/2023,05:12:39,0.041,0.0,0.02,0.001
07/07/2023,05:13:40,0.041,0.0,0.021,0.001
07/07/2023,05:14:39,0.043,0.0,0.021,0.0
07/07/2023,05:15:40,0.044,0.0,0.022,0.001
07/07/2023,05:16:39,0.046,0.0,0.023,0.001
07/07/2023,05:17:39,0.047,0.0,0.024,0.001
07/07/2023,05:18:39,0.048,0.0,0.024,0.0
07/07/2023,05:19:39,0.049,0.0,0.025,0.001
07/07/2023,05:20:39,0.050,0.0,0.026,0.001
07/07/2023,05:21:39,0.052,0.0,0.027,0.001
07/07/2023,05:22:39,0.053,0.0,0.028,0.001
07/07/2023,05:23:39,0.054,0.0,0.029,0.001
07/07/2023,05:24:39,0.056,0.0,0.029,0.0
07/07/2023,05:25:39,0.057,0.0,0.03,0.001
07/07/2023,05:26:39,0.058,0.0,0.031,0.001
07/07/2023,05:27:39,0.060,0.0,0.032,0.001
07/07/2023,05:28:39,0.061,0.0,0.033,0.001
07/07/2023,05:29:39,0.063,0.0,0.034,0.001
07/07/2023,05:30:39,0.064,0.0,0.035,0.001
07/07/2023,05:31:39,0.065,0.0,0.036,0.001
07/07/2023,05:32:39,0.066,0.0,0.038,0.002
07/07/2023,05:33:39,0.068,0.0,0.039,0.001
07/07/2023,05:34:39,0.070,0.0,0.04,0.001
07/07/2023,05:35:39,0.071,0.0,0.041,0.001
07/07/2023,05:36:40,0.073,0.0,0.042,0.001
07/07/2023,05:37:39,0.075,0.0,0.043,0.001
07/07/2023,05:38:39,0.076,0.0,0.045,0.002
07/07/2023,05:39:39,0.079,0.0,0.046,0.001
07/07/2023,05:40:39,0.080,0.0,0.047,0.001
07/07/2023,05:41:39,0.081,0.0,0.049,0.002
07/07/2023,05:42:39,0.083,0.0,0.05,0.001
07/07/2023,05:43:39,0.086,0.0,0.051,0.001
07/07/2023,05:44:39,0.087,0.0,0.053,0.002
07/07/2023,05:45:39,0.089,0.0,0.054,0.001
07/07/2023,05:46:39,0.091,0.0,0.056,0.002
07/07/2023,05:47:40,0.092,0.0,0.057,0.001
07/07/2023,05:48:39,0.094,0.0,0.059,0.002
07/07/2023,05:49:39,0.097,0.0,0.06,0.001
07/07/2023,05:50:39,0.099,0.0,0.062,0.002
07/07/2023,05:51:39,0.101,0.0,0.064,0.002
07/07/2023,05:52:39,0.103,0.0,0.065,0.001
07/07/2023,05:53:39,0.105,0.0,0.067,0.002
07/07/2023,05:54:39,0.108,0.0,0.069,0.002
07/07/2023,05:55:39,0.109,0.0,0.071,0.002
07/07/2023,05:56:39,0.112,0.0,0.073,0.002
07/07/2023,05:57:39,0.115,0.0,0.074,0.001
07/07/2023,05:58:39,0.117,0.0,0.076,0.002
07/07/2023,05:59:39,0.119,0.0,0.078,0.002
07/07/2023,06:00:39,0.121,0.0,0.08,0.002
07/07/2023,06:01:40,0.124,0.0,0.082,0.002
07/07/2023,06:02:39,0.126,0.0,0.084,0.002
07/07/2023,06:03:39,0.128,0.0,0.087,0.003
07/07/2023,06:04:39,0.130,0.0,0.089,0.002
07/07/2023,06:05:39,0.133,0.0,0.091,0.002
07/07/2023,06:06:40,0.135,0.0,0.093,0.002
07/07/2023,06:07:39,0.138,0.0,0.095,0.002
07/07/2023,06:08:39,0.141,0.0,0.098,0.003
07/07/2023,06:09:40,0.144,0.0,0.1,0.002
07/07/2023,06:10:39,0.148,0.0,0.103,0.003
07/07/2023,06:11:39,0.150,0.0,0.105,0.002
07/07/2023,06:12:39,0.152,0.0,0.108,0.003
07/07/2023,06:13:39,0.156,0.0,0.11,0.002
07/07/2023,06:14:39,0.158,0.0,0.113,0.003
07/07/2023,06:15:39,0.162,0.0,0.115,0.002
07/07/2023,06:16:39,0.164,0.0,0.118,0.003
07/07/2023,06:17:39,0.167,0.0,0.121,0.003
07/07/2023,06:18:40,0.170,0.0,0.124,0.003
07/07/2023,06:19:39,0.173,0.0,0.127,0.003
07/07/2023,06:20:39,0.176,0.0,0.13,0.003
07/07/2023,06:21:40,0.179,0.0,0.132,0.002
07/07/2023,06:22:39,0.182,0.0,0.135,0.003
07/07/2023,06:23:39,0.186,0.0,0.138,0.003
07/07/2023,06:24:39,0.189,0.0,0.142,0.004
07/07/2023,06:25:39,0.192,0.0,0.145,0.003
07/07/2023,06:26:39,0.195,0.0,0.148,0.003
07/07/2023,06:27:39,0.199,0.0,0.151,0.003
07/07/2023,06:28:39,0.203,0.0,0.155,0.004
07/07/2023,06:29:40,0.206,0.0,0.158,0.003
07/07/2023,06:30:39,0.209,0.0,0.162,0.004
07/07/2023,06:31:40,0.212,0.0,0.165,0.003
07/07/2023,06:32:39,0.217,0.0,0.169,0.004
07/07/2023,06:33:39,0.220,1.0,0.172,0.003
07/07/2023,06:34:39,0.225,1.0,0.176,0.004
07/07/2023,06:35:39,0.227,1.0,0.18,0.004
07/07/2023,06:36:39,0.232,1.0,0.184,0.004
07/07/2023,06:37:39,0.236,1.0,0.187,0.003
07/07/2023,06:38:39,0.238,1.0,0.192,0.005
07/07/2023,06:39:39,0.243,1.0,0.195,0.003
07/07/2023,06:40:40,0.247,1.0,0.2,0.005
07/07/2023,06:41:39,0.251,1.0,0.204,0.004
07/07/2023,06:42:40,0.255,1.0,0.208,0.004
07/07/2023,06:43:39,0.259,1.0,0.212,0.004
07/07/2023,06:44:39,0.263,1.0,0.217,0.005
07/07/2023,06:45:39,0.267,1.0,0.221,0.004
07/07/2023,06:46:40,0.272,1.0,0.226,0.005
07/07/2023,06:47:39,0.276,1.0,0.23,0.004
07/07/2023,06:48:40,0.280,1.0,0.235,0.005
07/07/2023,06:49:39,0.284,1.0,0.239,0.004
07/07/2023,06:50:39,0.288,1.0,0.244,0.005
07/07/2023,06:51:39,0.293,1.0,0.249,0.005
07/07/2023,06:52:39,0.299,1.0,0.254,0.005
07/07/2023,06:53:44,0.303,1.0,0.259,0.005
07/07/2023,06:54:40,0.306,1.0,0.264,0.005
07/07/2023,06:55:40,0.311,1.0,0.269,0.005
07/07/2023,06:56:39,0.317,1.0,0.274,0.005
07/07/2023,06:57:40,0.322,1.0,0.28,0.006
07/07/2023,06:58:39,0.328,1.0,0.285,0.005
07/07/2023,06:59:39,0.332,1.0,0.291,0.006
07/07/2023,07:00:40,0.337,1.0,0.296,0.005
07/07/2023,07:01:39,0.342,1.0,0.302,0.006
07/07/2023,07:02:40,0.348,1.0,0.308,0.006
07/07/2023,07:03:39,0.352,1.0,0.313,0.005
07/07/2023,07:04:40,0.357,1.0,0.319,0.006
07/07/2023,07:05:39,0.362,1.0,0.325,0.006
07/07/2023,07:06:39,0.366,1.0,0.332,0.007
07/07/2023,07:07:39,0.372,1.0,0.338,0.006
07/07/2023,07:08:39,0.379,1.0,0.344,0.006
07/07/2023,07:09:40,0.383,1.0,0.35,0.006
07/07/2023,07:10:39,0.387,1.0,0.357,0.007
07/07/2023,07:11:39,0.394,1.0,0.363,0.006
07/07/2023,07:12:39,0.400,1.0,0.37,0.007
07/07/2023,07:13:40,0.406,1.0,0.377,0.007
07/07/2023,07:14:40,0.411,1.0,0.383,0.006
07/07/2023,07:15:39,0.416,1.0,0.39,0.007
07/07/2023,07:16:40,0.423,1.0,0.397,0.007
07/07/2023,07:17:37,0.428,1.0,0.404,0.007
07/07/2023,07:19:01,0.436,1.0,0.414,0.01
07/07/2023,07:20:40,0.445,1.0,0.426,0.012
07/07/2023,07:21:39,0.451,1.0,0.434,0.008
07/07/2023,07:22:39,0.456,1.0,0.441,0.007
07/07/2023,07:23:40,0.464,1.0,0.449,0.008
07/07/2023,07:24:39,0.467,1.0,0.456,0.007
07/07/2023,07:25:39,0.473,1.0,0.464,0.008
07/07/2023,07:26:39,0.480,1.0,0.472,0.008
07/07/2023,07:27:40,0.487,1.0,0.481,0.009
07/07/2023,07:28:39,0.493,1.0,0.488,0.007
07/07/2023,07:29:40,0.498,1.0,0.497,0.009
07/07/2023,07:30:39,0.504,1.0,0.505,0.008
07/07/2023,07:31:39,0.512,1.0,0.514,0.009
07/07/2023,07:32:39,0.517,1.0,0.522,0.008
07/07/2023,07:33:40,0.524,1.0,0.531,0.009
07/07/2023,07:34:39,0.531,1.0,0.54,0.009
07/07/2023,07:35:39,0.537,1.0,0.549,0.009
07/07/2023,07:36:40,0.540,1.0,0.558,0.009
07/07/2023,07:37:39,0.548,1.0,0.566,0.008
07/07/2023,07:38:40,0.556,1.0,0.576,0.01
07/07/2023,07:39:39,0.563,1.0,0.585,0.009
07/07/2023,07:40:39,0.568,1.0,0.594,0.009
07/07/2023,07:41:39,0.576,1.0,0.604,0.01
07/07/2023,07:42:39,0.583,1.0,0.614,0.01
07/07/2023,07:43:39,0.589,1.0,0.624,0.01
07/07/2023,07:44:40,0.596,1.0,0.634,0.01
07/07/2023,07:45:40,0.601,1.0,0.643,0.009
07/07/2023,07:46:40,0.609,1.0,0.654,0.011
07/07/2023,07:47:39,0.617,1.0,0.664,0.01
07/07/2023,07:48:39,0.623,1.0,0.674,0.01
07/07/2023,07:49:39,0.631,1.0,0.685,0.011
07/07/2023,07:50:40,0.639,1.0,0.695,0.01
07/07/2023,07:51:39,0.646,1.0,0.706,0.011
07/07/2023,07:52:40,0.653,2.0,0.717,0.011
07/07/2023,07:53:39,0.659,2.0,0.727,0.01
07/07/2023,07:54:39,0.666,2.0,0.739,0.012
07/07/2023,07:55:40,0.673,2.0,0.75,0.011
07/07/2023,07:56:39,0.680,2.0,0.761,0.011
07/07/2023,07:57:40,0.687,2.0,0.773,0.012
07/07/2023,07:58:39,0.695,2.0,0.784,0.011
07/07/2023,07:59:39,0.701,2.0,0.796,0.012
07/07/2023,08:00:39,0.710,2.0,0.807,0.011
07/07/2023,08:01:40,0.716,2.0,0.819,0.012
07/07/2023,08:02:39,0.724,2.0,0.831,0.012
07/07/2023,08:03:40,0.732,2.0,0.844,0.013
07/07/2023,08:04:39,0.739,2.0,0.856,0.012
07/07/2023,08:05:40,0.746,2.0,0.868,0.012
07/07/2023,08:06:39,0.753,2.0,0.881,0.013
07/07/2023,08:07:40,0.762,2.0,0.893,0.012
07/07/2023,08:08:39,0.770,2.0,0.906,0.013
07/07/2023,08:09:40,0.777,2.0,0.919,0.013
07/07/2023,08:10:39,0.786,2.0,0.932,0.013
07/07/2023,08:11:40,0.795,2.0,0.945,0.013
07/07/2023,08:12:39,0.801,2.0,0.958,0.013
07/07/2023,08:13:40,0.808,2.0,0.972,0.014
07/07/2023,08:14:39,0.818,2.0,0.985,0.013
07/07/2023,08:15:39,0.825,2.0,0.999,0.014
07/07/2023,08:16:40,0.831,2.0,1.013,0.014
07/07/2023,08:17:40,0.839,2.0,1.027,0.014
07/07/2023,08:18:39,0.848,2.0,1.041,0.014
07/07/2023,08:19:40,0.856,2.0,1.055,0.014
07/07/2023,08:20:39,0.864,2.0,1.069,0.014
07/07/2023,08:21:39,0.870,2.0,1.084,0.015
07/07/2023,08:22:39,0.879,2.0,1.099,0.015
07/07/2023,08:23:39,0.886,2.0,1.113,0.014
07/07/2023,08:24:39,0.896,2.0,1.128,0.015
07/07/2023,08:25:39,0.904,2.0,1.143,0.015
07/07/2023,08:26:39,0.911,2.0,1.158,0.015
07/07/2023,08:27:39,0.918,2.0,1.173,0.015
07/07/2023,08:28:40,0.927,2.0,1.189,0.016
07/07/2023,08:29:39,0.933,2.0,1.204,0.015
07/07/2023,08:30:38,0.943,2.0,1.22,0.016
07/07/2023,08:31:40,0.950,2.0,1.236,0.016
07/07/2023,08:32:39,0.958,2.0,1.252,0.016
07/07/2023,08:33:39,0.966,2.0,1.267,0.015
07/07/2023,08:34:39,0.974,2.0,1.284,0.017
07/07/2023,08:35:40,0.981,2.0,1.3,0.016
07/07/2023,08:36:39,0.994,2.0,1.316,0.016
07/07/2023,08:37:39,0.999,2.0,1.333,0.017
07/07/2023,08:38:39,1.007,2.0,1.35,0.017
07/07/2023,08:39:40,1.014,2.0,1.367,0.017
07/07/2023,08:40:39,1.023,2.0,1.383,0.016
07/07/2023,08:41:40,1.032,2.0,1.401,0.018
07/07/2023,08:42:40,1.039,2.0,1.418,0.017
07/07/2023,08:43:39,1.049,2.0,1.436,0.018
07/07/2023,08:44:40,1.057,2.0,1.453,0.017
07/07/2023,08:45:39,1.064,2.0,1.471,0.018
07/07/2023,08:46:39,1.072,2.0,1.489,0.018
07/07/2023,08:47:40,1.081,2.0,1.507,0.018
07/07/2023,08:48:39,1.089,3.0,1.524,0.017
07/07/2023,08:49:39,1.097,3.0,1.543,0.019
07/07/2023,08:50:40,1.105,3.0,1.561,0.018
07/07/2023,08:51:40,1.116,3.0,1.58,0.019
07/07/2023,08:52:39,1.122,3.0,1.598,0.018
07/07/2023,08:53:40,1.129,3.0,1.617,0.019
07/07/2023,08:54:40,1.138,3.0,1.636,0.019
07/07/2023,08:55:39,1.146,3.0,1.655,0.019
07/07/2023,08:56:40,1.154,3.0,1.674,0.019
07/07/2023,08:57:39,1.163,3.0,1.693,0.019
07/07/2023,08:58:40,1.170,3.0,1.713,0.02
07/07/2023,08:59:39,1.182,3.0,1.732,0.019
07/07/2023,09:00:40,1.189,3.0,1.752,0.02
07/07/2023,09:01:39,1.196,3.0,1.772,0.02
07/07/2023,09:02:40,1.208,3.0,1.792,0.02
07/07/2023,09:03:40,1.212,3.0,1.812,0.02
07/07/2023,09:04:39,1.222,3.0,1.833,0.021
07/07/2023,09:05:40,1.231,3.0,1.853,0.02
07/07/2023,09:06:39,1.239,3.0,1.874,0.021
07/07/2023,09:08:08,1.249,3.0,1.904,0.03
07/07/2023,09:09:40,1.263,3.0,1.936,0.032
07/07/2023,09:10:39,1.269,3.0,1.957,0.021
07/07/2023,09:11:39,1.281,3.0,1.979,0.022
07/07/2023,09:12:40,1.290,3.0,2.0,0.021
07/07/2023,09:13:39,1.298,3.0,2.021,0.021
07/07/2023,09:14:39,1.306,3.0,2.043,0.022
07/07/2023,09:15:40,1.314,3.0,2.065,0.022
07/07/2023,09:16:39,1.324,3.0,2.087,0.022
07/07/2023,09:17:40,1.331,3.0,2.109,0.022
07/07/2023,09:18:39,1.340,3.0,2.132,0.023
07/07/2023,09:19:40,1.351,3.0,2.154,0.022
07/07/2023,09:20:39,1.358,3.0,2.177,0.023
07/07/2023,09:21:39,1.365,3.0,2.199,0.022
07/07/2023,09:22:40,1.376,3.0,2.222,0.023
07/07/2023,09:23:39,1.384,3.0,2.245,0.023
07/07/2023,09:24:39,1.393,3.0,2.268,0.023
07/07/2023,09:25:39,1.400,3.0,2.291,0.023
07/07/2023,09:26:40,1.412,3.0,2.315,0.024
07/07/2023,09:27:39,1.418,3.0,2.339,0.024
07/07/2023,09:28:39,1.425,3.0,2.361,0.022
07/07/2023,09:29:39,1.435,3.0,2.386,0.025
07/07/2023,09:30:39,1.444,3.0,2.41,0.024
07/07/2023,09:31:40,1.453,3.0,2.434,0.024
07/07/2023,09:32:40,1.462,3.0,2.459,0.025
07/07/2023,09:33:39,1.469,3.0,2.483,0.024
07/07/2023,09:34:39,1.478,3.0,2.507,0.024
07/07/2023,09:35:39,1.486,3.0,2.532,0.025
07/07/2023,09:36:39,1.495,3.0,2.557,0.025
07/07/2023,09:37:40,1.504,3.0,2.582,0.025
07/07/2023,09:38:39,1.514,3.0,2.607,0.025
07/07/2023,09:39:40,1.522,4.0,2.632,0.025
07/07/2023,09:40:39,1.528,4.0,2.658,0.026
07/07/2023,09:41:40,1.541,4.0,2.683,0.025
07/07/2023,09:42:39,1.548,4.0,2.709,0.026
07/07/2023,09:43:38,1.557,4.0,2.734,0.025
07/07/2023,09:44:40,1.566,4.0,2.761,0.027
07/07/2023,09:45:39,1.575,4.0,2.787,0.026
07/07/2023,09:46:40,1.584,4.0,2.814,0.027
07/07/2023,09:47:40,1.594,4.0,2.84,0.026
07/07/2023,09:48:39,1.602,4.0,2.866,0.026
07/07/2023,09:49:39,1.611,4.0,2.894,0.028
07/07/2023,09:50:40,1.618,4.0,2.92,0.026
07/07/2023,09:51:39,1.631,4.0,2.948,0.028
07/07/2023,09:52:39,1.633,4.0,2.974,0.026
07/07/2023,09:53:39,1.644,4.0,3.002,0.028
07/07/2023,09:54:39,1.653,4.0,3.03,0.028
07/07/2023,09:55:40,1.659,4.0,3.057,0.027
07/07/2023,09:56:39,1.667,4.0,3.085,0.028
07/07/2023,09:57:39,1.674,4.0,3.113,0.028